{"data":{"norad_id":51889,"epoch":"2026-05-25T01:21:09.980064Z","epoch_age_seconds":77136,"freshness":"FRESH","line1":"1 51889U 22022AP  26145.05636551 -.00001430  00000+0 -71734-4 0  9993","line2":"2 51889  53.2147  16.2974 0001599 102.0323 258.0848 15.08844356234771","mean_motion":15.08844356,"eccentricity":0.0001599,"inclination_deg":53.2147,"raan_deg":16.2974,"arg_perigee_deg":102.0323,"mean_anomaly_deg":258.0848,"bstar":-7.1734e-5,"rev_number":23477,"period_min":95.437279151674,"perigee_km":538.62390750158,"apogee_km":540.83624139198,"semimajor_km":6917.8670744468,"source":"CELESTRAK","updated_at":"2026-05-25T13:38:16.988447Z"}}